owner,sensor,date,latitude,longitude,vertical_datum,sea_water_practical_salinity,qcFlag 
SCCF RECON,ioos:station:SCCF:51:1,2010-05-01T00:00:00Z,26.5545,-82.1715,1.486,27.83,1111122 
SCCF RECON,ioos:station:SCCF:51:1,2010-05-01T01:00:00Z,26.5545,-82.1715,1.371,28.06,1111122 
SCCF RECON,ioos:station:SCCF:51:1,2010-05-01T02:00:00Z,26.5545,-82.1715,1.291,28.44,1111122 
SCCF RECON,ioos:station:SCCF:51:1,2010-05-01T03:00:00Z,26.5545,-82.1715,1.293,28.46,1111122 
SCCF RECON,ioos:station:SCCF:51:1,2010-05-01T04:00:00Z,26.5545,-82.1715,1.38,28.25,1111122 
SCCF RECON,ioos:station:SCCF:51:1,2010-05-01T05:00:00Z,26.5545,-82.1715,1.513,27.91,1111122 
SCCF RECON,ioos:station:SCCF:51:1,2010-05-01T06:00:00Z,26.5545,-82.1715,1.642,30.91,1111122 
SCCF RECON,ioos:station:SCCF:51:1,2010-05-01T07:00:00Z,26.5545,-82.1715,1.726,30.41,1111122 
SCCF RECON,ioos:station:SCCF:51:1,2010-05-01T08:00:00Z,26.5545,-82.1715,1.767,30.6,1111122 
SCCF RECON,ioos:station:SCCF:51:1,2010-05-01T09:00:00Z,26.5545,-82.1715,1.769,31.15,1111122 
SCCF RECON,ioos:station:SCCF:51:1,2010-05-01T10:00:00Z,26.5545,-82.1715,1.752,29.03,1111122 
SCCF RECON,ioos:station:SCCF:51:1,2010-05-01T11:00:00Z,26.5545,-82.1715,1.745,29.17,1111122 
SCCF RECON,ioos:station:SCCF:51:1,2010-05-01T12:00:00Z,26.5545,-82.1715,1.748,28.71,1111122 
SCCF RECON,ioos:station:SCCF:51:1,2010-05-01T13:00:00Z,26.5545,-82.1715,1.779,28.54,1111122 
SCCF RECON,ioos:station:SCCF:51:1,2010-05-01T14:00:00Z,26.5545,-82.1715,1.833,27.78,1111122 
SCCF RECON,ioos:station:SCCF:51:1,2010-05-01T15:00:00Z,26.5545,-82.1715,1.908,27.71,1111122 
SCCF RECON,ioos:station:SCCF:51:1,2010-05-01T16:00:00Z,26.5545,-82.1715,1.988,28.51,1111122 
SCCF RECON,ioos:station:SCCF:51:1,2010-05-01T17:00:00Z,26.5545,-82.1715,2.054,32.4,1111122 
SCCF RECON,ioos:station:SCCF:51:1,2010-05-01T18:00:00Z,26.5545,-82.1715,2.084,31.84,1111122 
SCCF RECON,ioos:station:SCCF:51:1,2010-05-01T19:00:00Z,26.5545,-82.1715,2.07,31.42,1111122 
SCCF RECON,ioos:station:SCCF:51:1,2010-05-01T20:00:00Z,26.5545,-82.1715,2.02,29.53,1111122 
SCCF RECON,ioos:station:SCCF:51:1,2010-05-01T21:00:00Z,26.5545,-82.1715,1.938,28.57,1111122 
SCCF RECON,ioos:station:SCCF:51:1,2010-05-01T22:00:00Z,26.5545,-82.1715,1.841,28.19,1111122 
SCCF RECON,ioos:station:SCCF:51:1,2010-05-01T23:00:00Z,26.5545,-82.1715,1.716,29.08,1111122 
SCCF RECON,ioos:station:SCCF:51:1,2010-05-02T00:00:00Z,26.5545,-82.1715,1.589,28.84,1111122 
SCCF RECON,ioos:station:SCCF:51:1,2010-05-02T01:00:00Z,26.5545,-82.1715,1.474,28.04,1111122 
SCCF RECON,ioos:station:SCCF:51:1,2010-05-02T02:00:00Z,26.5545,-82.1715,1.381,27.18,1111122 
SCCF RECON,ioos:station:SCCF:51:1,2010-05-02T03:00:00Z,26.5545,-82.1715,1.32,27.0,1111122 
SCCF RECON,ioos:station:SCCF:51:1,2010-05-02T04:00:00Z,26.5545,-82.1715,1.343,27.2,1111122 
SCCF RECON,ioos:station:SCCF:51:1,2010-05-02T05:00:00Z,26.5545,-82.1715,1.429,27.22,1111122 
SCCF RECON,ioos:station:SCCF:51:1,2010-05-02T06:00:00Z,26.5545,-82.1715,1.543,28.06,1111122 
SCCF RECON,ioos:station:SCCF:51:1,2010-05-02T07:00:00Z,26.5545,-82.1715,1.642,29.3,1111122 
SCCF RECON,ioos:station:SCCF:51:1,2010-05-02T08:00:00Z,26.5545,-82.1715,1.7,30.79,1111122 
SCCF RECON,ioos:station:SCCF:51:1,2010-05-02T09:00:00Z,26.5545,-82.1715,1.723,30.08,1111122 
SCCF RECON,ioos:station:SCCF:51:1,2010-05-02T10:00:00Z,26.5545,-82.1715,1.739,29.53,1111122 
SCCF RECON,ioos:station:SCCF:51:1,2010-05-02T11:00:00Z,26.5545,-82.1715,1.755,28.88,1111122 
SCCF RECON,ioos:station:SCCF:51:1,2010-05-02T12:00:00Z,26.5545,-82.1715,1.763,28.29,1111122 
SCCF RECON,ioos:station:SCCF:51:1,2010-05-02T13:00:00Z,26.5545,-82.1715,1.77,28.09,1111122 
SCCF RECON,ioos:station:SCCF:51:1,2010-05-02T14:00:00Z,26.5545,-82.1715,1.785,28.45,1111122 
SCCF RECON,ioos:station:SCCF:51:1,2010-05-02T15:00:00Z,26.5545,-82.1715,1.83,28.77,1111122 
SCCF RECON,ioos:station:SCCF:51:1,2010-05-02T16:00:00Z,26.5545,-82.1715,1.901,28.96,1111122 
SCCF RECON,ioos:station:SCCF:51:1,2010-05-02T17:00:00Z,26.5545,-82.1715,1.974,29.26,1111122 
SCCF RECON,ioos:station:SCCF:51:1,2010-05-02T18:00:00Z,26.5545,-82.1715,2.03,32.09,1111122 
SCCF RECON,ioos:station:SCCF:51:1,2010-05-02T19:00:00Z,26.5545,-82.1715,2.06,32.69,1111122 
SCCF RECON,ioos:station:SCCF:51:1,2010-05-02T20:00:00Z,26.5545,-82.1715,2.058,31.94,1111122 
SCCF RECON,ioos:station:SCCF:51:1,2010-05-02T21:00:00Z,26.5545,-82.1715,2.002,29.94,1111122 
SCCF RECON,ioos:station:SCCF:51:1,2010-05-02T22:00:00Z,26.5545,-82.1715,1.925,29.76,1111122 
SCCF RECON,ioos:station:SCCF:51:1,2010-05-02T23:00:00Z,26.5545,-82.1715,1.821,29.56,1111122 
SCCF RECON,ioos:station:SCCF:51:1,2010-05-03T00:00:00Z,26.5545,-82.1715,1.706,30.8,1111122 
SCCF RECON,ioos:station:SCCF:51:1,2010-05-03T01:00:00Z,26.5545,-82.1715,1.595,30.84,1111122 
SCCF RECON,ioos:station:SCCF:51:1,2010-05-03T02:00:00Z,26.5545,-82.1715,1.497,30.8,1111122 
SCCF RECON,ioos:station:SCCF:51:1,2010-05-03T03:00:00Z,26.5545,-82.1715,1.417,30.64,1111122 
SCCF RECON,ioos:station:SCCF:51:1,2010-05-03T04:00:00Z,26.5545,-82.1715,1.368,30.25,1111122 
SCCF RECON,ioos:station:SCCF:51:1,2010-05-03T05:00:00Z,26.5545,-82.1715,1.399,30.35,1111122 
SCCF RECON,ioos:station:SCCF:51:1,2010-05-03T06:00:00Z,26.5545,-82.1715,1.484,30.73,1111122 
SCCF RECON,ioos:station:SCCF:51:1,2010-05-03T07:00:00Z,26.5545,-82.1715,1.565,30.97,1111122 
SCCF RECON,ioos:station:SCCF:51:1,2010-05-03T08:00:00Z,26.5545,-82.1715,1.635,30.5,1111122 
SCCF RECON,ioos:station:SCCF:51:1,2010-05-03T09:00:00Z,26.5545,-82.1715,1.689,30.26,1111122 
SCCF RECON,ioos:station:SCCF:51:1,2010-05-03T10:00:00Z,26.5545,-82.1715,1.719,30.5,1111122 
SCCF RECON,ioos:station:SCCF:51:1,2010-05-03T11:00:00Z,26.5545,-82.1715,1.733,30.37,1111122 
SCCF RECON,ioos:station:SCCF:51:1,2010-05-03T12:00:00Z,26.5545,-82.1715,1.755,30.34,1111122 
SCCF RECON,ioos:station:SCCF:51:1,2010-05-03T13:00:00Z,26.5545,-82.1715,1.754,30.3,1111122 
SCCF RECON,ioos:station:SCCF:51:1,2010-05-03T14:00:00Z,26.5545,-82.1715,1.759,30.35,1111122 
SCCF RECON,ioos:station:SCCF:51:1,2010-05-03T15:00:00Z,26.5545,-82.1715,1.793,30.34,1111122 
SCCF RECON,ioos:station:SCCF:51:1,2010-05-03T16:00:00Z,26.5545,-82.1715,1.829,30.65,1111122 
SCCF RECON,ioos:station:SCCF:51:1,2010-05-03T17:00:00Z,26.5545,-82.1715,1.88,30.74,1111122 
SCCF RECON,ioos:station:SCCF:51:1,2010-05-03T18:00:00Z,26.5545,-82.1715,1.933,30.74,1111122 
SCCF RECON,ioos:station:SCCF:51:1,2010-05-03T19:00:00Z,26.5545,-82.1715,1.968,30.68,1111122 
SCCF RECON,ioos:station:SCCF:51:1,2010-05-03T20:00:00Z,26.5545,-82.1715,1.972,31.91,1111122 
SCCF RECON,ioos:station:SCCF:51:1,2010-05-03T21:00:00Z,26.5545,-82.1715,1.926,30.73,1111122 
SCCF RECON,ioos:station:SCCF:51:1,2010-05-03T22:00:00Z,26.5545,-82.1715,1.856,30.56,1111122 
SCCF RECON,ioos:station:SCCF:51:1,2010-05-03T23:00:00Z,26.5545,-82.1715,1.781,30.67,1111122 
SCCF RECON,ioos:station:SCCF:51:1,2010-05-04T00:00:00Z,26.5545,-82.1715,1.702,31.22,1111122 
SCCF RECON,ioos:station:SCCF:51:1,2010-05-04T01:00:00Z,26.5545,-82.1715,1.62,31.29,1111122 
SCCF RECON,ioos:station:SCCF:51:1,2010-05-04T02:00:00Z,26.5545,-82.1715,1.536,31.89,1111122 
SCCF RECON,ioos:station:SCCF:51:1,2010-05-04T03:00:00Z,26.5545,-82.1715,1.45,31.98,1111122 
SCCF RECON,ioos:station:SCCF:51:1,2010-05-04T04:00:00Z,26.5545,-82.1715,1.38,31.55,1111122 
SCCF RECON,ioos:station:SCCF:51:1,2010-05-04T05:00:00Z,26.5545,-82.1715,1.349,31.03,1111122 
SCCF RECON,ioos:station:SCCF:51:1,2010-05-04T06:00:00Z,26.5545,-82.1715,1.379,30.71,1111122 
SCCF RECON,ioos:station:SCCF:51:1,2010-05-04T07:00:00Z,26.5545,-82.1715,1.45,30.84,1111122 
SCCF RECON,ioos:station:SCCF:51:1,2010-05-04T08:00:00Z,26.5545,-82.1715,1.531,31.2,1111122 
SCCF RECON,ioos:station:SCCF:51:1,2010-05-04T09:00:00Z,26.5545,-82.1715,1.615,32.15,1111122 
SCCF RECON,ioos:station:SCCF:51:1,2010-05-04T10:00:00Z,26.5545,-82.1715,1.667,31.73,1111122 
SCCF RECON,ioos:station:SCCF:51:1,2010-05-04T11:00:00Z,26.5545,-82.1715,1.706,32.12,1111122 
SCCF RECON,ioos:station:SCCF:51:1,2010-05-04T12:00:00Z,26.5545,-82.1715,1.719,32.24,1111122 
SCCF RECON,ioos:station:SCCF:51:1,2010-05-04T13:00:00Z,26.5545,-82.1715,1.717,32.17,1111122 
SCCF RECON,ioos:station:SCCF:51:1,2010-05-04T14:00:00Z,26.5545,-82.1715,1.699,31.82,1111122 
SCCF RECON,ioos:station:SCCF:51:1,2010-05-04T15:00:00Z,26.5545,-82.1715,1.688,31.64,1111122 
SCCF RECON,ioos:station:SCCF:51:1,2010-05-04T16:00:00Z,26.5545,-82.1715,1.693,31.59,1111122 
SCCF RECON,ioos:station:SCCF:51:1,2010-05-04T17:00:00Z,26.5545,-82.1715,1.722,31.62,1111122 
SCCF RECON,ioos:station:SCCF:51:1,2010-05-04T18:00:00Z,26.5545,-82.1715,1.754,31.58,1111122 
SCCF RECON,ioos:station:SCCF:51:1,2010-05-04T19:00:00Z,26.5545,-82.1715,1.8,31.67,1111122 
SCCF RECON,ioos:station:SCCF:51:1,2010-05-04T20:00:00Z,26.5545,-82.1715,1.824,31.79,1111122 
SCCF RECON,ioos:station:SCCF:51:1,2010-05-04T21:00:00Z,26.5545,-82.1715,1.819,31.81,1111122 
SCCF RECON,ioos:station:SCCF:51:1,2010-05-04T22:00:00Z,26.5545,-82.1715,1.789,31.57,1111122 
SCCF RECON,ioos:station:SCCF:51:1,2010-05-04T23:00:00Z,26.5545,-82.1715,1.742,31.39,1111122 
SCCF RECON,ioos:station:SCCF:51:1,2010-05-05T00:00:00Z,26.5545,-82.1715,1.676,31.33,1111122 
SCCF RECON,ioos:station:SCCF:51:1,2010-05-05T01:00:00Z,26.5545,-82.1715,1.614,31.14,1111122 
SCCF RECON,ioos:station:SCCF:51:1,2010-05-05T02:00:00Z,26.5545,-82.1715,1.54,30.99,1111122 
SCCF RECON,ioos:station:SCCF:51:1,2010-05-05T03:00:00Z,26.5545,-82.1715,1.459,31.15,1111122 
SCCF RECON,ioos:station:SCCF:51:1,2010-05-05T04:00:00Z,26.5545,-82.1715,1.38,31.26,1111122 
SCCF RECON,ioos:station:SCCF:51:1,2010-05-05T05:00:00Z,26.5545,-82.1715,1.329,31.24,1111122 
SCCF RECON,ioos:station:SCCF:51:1,2010-05-05T06:00:00Z,26.5545,-82.1715,1.339,31.15,1111122 
SCCF RECON,ioos:station:SCCF:51:1,2010-05-05T07:00:00Z,26.5545,-82.1715,1.381,31.08,1111122 
SCCF RECON,ioos:station:SCCF:51:1,2010-05-05T08:00:00Z,26.5545,-82.1715,1.458,31.17,1111122 
SCCF RECON,ioos:station:SCCF:51:1,2010-05-05T09:00:00Z,26.5545,-82.1715,1.545,31.87,1111122 
SCCF RECON,ioos:station:SCCF:51:1,2010-05-05T10:00:00Z,26.5545,-82.1715,1.628,31.85,1111122 
SCCF RECON,ioos:station:SCCF:51:1,2010-05-05T11:00:00Z,26.5545,-82.1715,1.688,32.35,1111122 
SCCF RECON,ioos:station:SCCF:51:1,2010-05-05T12:00:00Z,26.5545,-82.1715,1.735,32.23,1111122 
SCCF RECON,ioos:station:SCCF:51:1,2010-05-05T13:00:00Z,26.5545,-82.1715,1.764,32.38,1111122 
SCCF RECON,ioos:station:SCCF:51:1,2010-05-05T14:00:00Z,26.5545,-82.1715,1.758,32.39,1111122 
SCCF RECON,ioos:station:SCCF:51:1,2010-05-05T15:00:00Z,26.5545,-82.1715,1.734,32.58,1111122 
SCCF RECON,ioos:station:SCCF:51:1,2010-05-05T16:00:00Z,26.5545,-82.1715,1.702,31.68,1111122 
SCCF RECON,ioos:station:SCCF:51:1,2010-05-05T17:00:00Z,26.5545,-82.1715,1.679,31.49,1111122 
SCCF RECON,ioos:station:SCCF:51:1,2010-05-05T18:00:00Z,26.5545,-82.1715,1.683,31.58,1111122 
SCCF RECON,ioos:station:SCCF:51:1,2010-05-05T19:00:00Z,26.5545,-82.1715,1.712,31.67,1111122 
SCCF RECON,ioos:station:SCCF:51:1,2010-05-05T20:00:00Z,26.5545,-82.1715,1.742,31.7,1111122 
SCCF RECON,ioos:station:SCCF:51:1,2010-05-05T21:00:00Z,26.5545,-82.1715,1.762,32.86,1111122 
SCCF RECON,ioos:station:SCCF:51:1,2010-05-05T22:00:00Z,26.5545,-82.1715,1.771,33.11,1111122 
SCCF RECON,ioos:station:SCCF:51:1,2010-05-05T23:00:00Z,26.5545,-82.1715,1.74,32.89,1111122 
SCCF RECON,ioos:station:SCCF:51:1,2010-05-06T00:00:00Z,26.5545,-82.1715,1.683,32.72,1111122 
SCCF RECON,ioos:station:SCCF:51:1,2010-05-06T01:00:00Z,26.5545,-82.1715,1.63,31.94,1111122 
SCCF RECON,ioos:station:SCCF:51:1,2010-05-06T02:00:00Z,26.5545,-82.1715,1.57,31.67,1111122 
SCCF RECON,ioos:station:SCCF:51:1,2010-05-06T03:00:00Z,26.5545,-82.1715,1.508,31.33,1111122 
SCCF RECON,ioos:station:SCCF:51:1,2010-05-06T04:00:00Z,26.5545,-82.1715,1.44,31.17,1111122 
SCCF RECON,ioos:station:SCCF:51:1,2010-05-06T05:00:00Z,26.5545,-82.1715,1.382,30.96,1111122 
SCCF RECON,ioos:station:SCCF:51:1,2010-05-06T06:00:00Z,26.5545,-82.1715,1.349,30.99,1111122 
SCCF RECON,ioos:station:SCCF:51:1,2010-05-06T07:00:00Z,26.5545,-82.1715,1.36,30.96,1111122 
SCCF RECON,ioos:station:SCCF:51:1,2010-05-06T08:00:00Z,26.5545,-82.1715,1.41,30.88,1111122 
SCCF RECON,ioos:station:SCCF:51:1,2010-05-06T09:00:00Z,26.5545,-82.1715,1.48,31.74,1111122 
SCCF RECON,ioos:station:SCCF:51:1,2010-05-06T10:00:00Z,26.5545,-82.1715,1.57,32.46,1111122 
SCCF RECON,ioos:station:SCCF:51:1,2010-05-06T11:00:00Z,26.5545,-82.1715,1.651,32.95,1111122 
SCCF RECON,ioos:station:SCCF:51:1,2010-05-06T12:00:00Z,26.5545,-82.1715,1.719,32.77,1111122 
SCCF RECON,ioos:station:SCCF:51:1,2010-05-06T13:00:00Z,26.5545,-82.1715,1.756,32.79,1111122 
SCCF RECON,ioos:station:SCCF:51:1,2010-05-06T14:00:00Z,26.5545,-82.1715,1.751,32.08,1111122 
SCCF RECON,ioos:station:SCCF:51:1,2010-05-06T15:00:00Z,26.5545,-82.1715,1.73,32.36,1111122 
SCCF RECON,ioos:station:SCCF:51:1,2010-05-06T16:00:00Z,26.5545,-82.1715,1.693,32.66,1111122 
SCCF RECON,ioos:station:SCCF:51:1,2010-05-06T17:00:00Z,26.5545,-82.1715,1.654,32.82,1111122 
SCCF RECON,ioos:station:SCCF:51:1,2010-05-06T18:00:00Z,26.5545,-82.1715,1.63,32.57,1111122 
SCCF RECON,ioos:station:SCCF:51:1,2010-05-06T19:00:00Z,26.5545,-82.1715,1.621,32.6,1111122 
SCCF RECON,ioos:station:SCCF:51:1,2010-05-06T20:00:00Z,26.5545,-82.1715,1.627,32.52,1111122 
SCCF RECON,ioos:station:SCCF:51:1,2010-05-06T21:00:00Z,26.5545,-82.1715,1.658,32.01,1111122 
SCCF RECON,ioos:station:SCCF:51:1,2010-05-06T22:00:00Z,26.5545,-82.1715,1.7,32.42,1111122 
SCCF RECON,ioos:station:SCCF:51:1,2010-05-06T23:00:00Z,26.5545,-82.1715,1.741,32.61,1111122 
SCCF RECON,ioos:station:SCCF:51:1,2010-05-07T00:00:00Z,26.5545,-82.1715,1.76,32.62,1111122 
SCCF RECON,ioos:station:SCCF:51:1,2010-05-07T01:00:00Z,26.5545,-82.1715,1.73,32.53,1111122 
SCCF RECON,ioos:station:SCCF:51:1,2010-05-07T02:00:00Z,26.5545,-82.1715,1.685,32.24,1111122 
SCCF RECON,ioos:station:SCCF:51:1,2010-05-07T03:00:00Z,26.5545,-82.1715,1.638,32.1,1111122 
SCCF RECON,ioos:station:SCCF:51:1,2010-05-07T04:00:00Z,26.5545,-82.1715,1.58,32.05,1111122 
SCCF RECON,ioos:station:SCCF:51:1,2010-05-07T05:00:00Z,26.5545,-82.1715,1.52,31.86,1111122 
SCCF RECON,ioos:station:SCCF:51:1,2010-05-07T06:00:00Z,26.5545,-82.1715,1.47,31.49,1111122 
SCCF RECON,ioos:station:SCCF:51:1,2010-05-07T07:00:00Z,26.5545,-82.1715,1.423,31.41,1111122 
SCCF RECON,ioos:station:SCCF:51:1,2010-05-07T08:00:00Z,26.5545,-82.1715,1.42,31.58,1111122 
SCCF RECON,ioos:station:SCCF:51:1,2010-05-07T09:00:00Z,26.5545,-82.1715,1.47,31.79,1111122 
SCCF RECON,ioos:station:SCCF:51:1,2010-05-07T10:00:00Z,26.5545,-82.1715,1.544,32.2,1111122 
SCCF RECON,ioos:station:SCCF:51:1,2010-05-07T11:00:00Z,26.5545,-82.1715,1.647,33.05,1111122 
SCCF RECON,ioos:station:SCCF:51:1,2010-05-07T12:00:00Z,26.5545,-82.1715,1.734,33.14,1111122 
SCCF RECON,ioos:station:SCCF:51:1,2010-05-07T13:00:00Z,26.5545,-82.1715,1.794,32.99,1111122 
SCCF RECON,ioos:station:SCCF:51:1,2010-05-07T14:00:00Z,26.5545,-82.1715,1.81,32.57,1111122 
SCCF RECON,ioos:station:SCCF:51:1,2010-05-07T15:00:00Z,26.5545,-82.1715,1.791,32.39,1111122 
SCCF RECON,ioos:station:SCCF:51:1,2010-05-07T16:00:00Z,26.5545,-82.1715,1.748,32.7,1111122 
SCCF RECON,ioos:station:SCCF:51:1,2010-05-07T17:00:00Z,26.5545,-82.1715,1.694,32.72,1111122 
SCCF RECON,ioos:station:SCCF:51:1,2010-05-07T18:00:00Z,26.5545,-82.1715,1.643,32.27,1111122 
SCCF RECON,ioos:station:SCCF:51:1,2010-05-07T19:00:00Z,26.5545,-82.1715,1.589,32.01,1111122 
SCCF RECON,ioos:station:SCCF:51:1,2010-05-07T20:00:00Z,26.5545,-82.1715,1.559,32.1,1111122 
SCCF RECON,ioos:station:SCCF:51:1,2010-05-07T21:00:00Z,26.5545,-82.1715,1.574,32.15,1111122 
SCCF RECON,ioos:station:SCCF:51:1,2010-05-07T22:00:00Z,26.5545,-82.1715,1.614,31.89,1111122 
SCCF RECON,ioos:station:SCCF:51:1,2010-05-08T00:00:00Z,26.5545,-82.1715,1.728,32.85,1111122 
SCCF RECON,ioos:station:SCCF:51:1,2010-05-08T01:00:00Z,26.5545,-82.1715,1.766,33.24,1111122 
SCCF RECON,ioos:station:SCCF:51:1,2010-05-08T02:00:00Z,26.5545,-82.1715,1.772,32.97,1111122 
SCCF RECON,ioos:station:SCCF:51:1,2010-05-08T03:00:00Z,26.5545,-82.1715,1.737,32.89,1111122 
SCCF RECON,ioos:station:SCCF:51:1,2010-05-08T04:00:00Z,26.5545,-82.1715,1.681,32.79,1111122 
SCCF RECON,ioos:station:SCCF:51:1,2010-05-08T05:00:00Z,26.5545,-82.1715,1.623,32.49,1111122 
SCCF RECON,ioos:station:SCCF:51:1,2010-05-08T06:00:00Z,26.5545,-82.1715,1.558,32.2,1111122 
SCCF RECON,ioos:station:SCCF:51:1,2010-05-08T07:00:00Z,26.5545,-82.1715,1.5,32.07,1111122 
SCCF RECON,ioos:station:SCCF:51:1,2010-05-08T08:00:00Z,26.5545,-82.1715,1.465,32.02,1111122 
SCCF RECON,ioos:station:SCCF:51:1,2010-05-08T09:00:00Z,26.5545,-82.1715,1.48,32.11,1111122 
SCCF RECON,ioos:station:SCCF:51:1,2010-05-08T10:00:00Z,26.5545,-82.1715,1.54,32.23,1111122 
SCCF RECON,ioos:station:SCCF:51:1,2010-05-08T11:00:00Z,26.5545,-82.1715,1.611,32.9,1111122 
SCCF RECON,ioos:station:SCCF:51:1,2010-05-08T12:00:00Z,26.5545,-82.1715,1.703,33.24,1111122 
SCCF RECON,ioos:station:SCCF:51:1,2010-05-08T13:00:00Z,26.5545,-82.1715,1.774,33.33,1111122 
SCCF RECON,ioos:station:SCCF:51:1,2010-05-08T14:00:00Z,26.5545,-82.1715,1.816,33.35,1111122 
SCCF RECON,ioos:station:SCCF:51:1,2010-05-08T15:00:00Z,26.5545,-82.1715,1.821,33.22,1111122 
SCCF RECON,ioos:station:SCCF:51:1,2010-05-08T16:00:00Z,26.5545,-82.1715,1.778,33.1,1111122 
SCCF RECON,ioos:station:SCCF:51:1,2010-05-08T17:00:00Z,26.5545,-82.1715,1.709,32.78,1111122 
SCCF RECON,ioos:station:SCCF:51:1,2010-05-08T18:00:00Z,26.5545,-82.1715,1.629,32.57,1111122 
SCCF RECON,ioos:station:SCCF:51:1,2010-05-08T19:00:00Z,26.5545,-82.1715,1.553,32.04,1111122 
SCCF RECON,ioos:station:SCCF:51:1,2010-05-08T20:00:00Z,26.5545,-82.1715,1.494,32.22,1111122 
SCCF RECON,ioos:station:SCCF:51:1,2010-05-08T21:00:00Z,26.5545,-82.1715,1.471,32.3,1111122 
SCCF RECON,ioos:station:SCCF:51:1,2010-05-08T22:00:00Z,26.5545,-82.1715,1.477,32.59,1111122 
SCCF RECON,ioos:station:SCCF:51:1,2010-05-08T23:00:00Z,26.5545,-82.1715,1.522,32.72,1111122 
SCCF RECON,ioos:station:SCCF:51:1,2010-05-09T00:00:00Z,26.5545,-82.1715,1.573,32.58,1111122 
SCCF RECON,ioos:station:SCCF:51:1,2010-05-09T01:00:00Z,26.5545,-82.1715,1.639,32.73,1111122 
SCCF RECON,ioos:station:SCCF:51:1,2010-05-09T02:00:00Z,26.5545,-82.1715,1.707,33.23,1111122 
SCCF RECON,ioos:station:SCCF:51:1,2010-05-09T03:00:00Z,26.5545,-82.1715,1.744,33.19,1111122 
SCCF RECON,ioos:station:SCCF:51:1,2010-05-09T04:00:00Z,26.5545,-82.1715,1.745,33.27,1111122 
SCCF RECON,ioos:station:SCCF:51:1,2010-05-09T05:00:00Z,26.5545,-82.1715,1.0,-9999.0,1111122 
SCCF RECON,ioos:station:SCCF:51:1,2010-05-09T06:00:00Z,26.5545,-82.1715,1.606,32.68,1111122 
SCCF RECON,ioos:station:SCCF:51:1,2010-05-09T07:00:00Z,26.5545,-82.1715,1.532,32.61,1111122 
SCCF RECON,ioos:station:SCCF:51:1,2010-05-09T08:00:00Z,26.5545,-82.1715,1.0,-9999.0,1111122 
SCCF RECON,ioos:station:SCCF:51:1,2010-05-09T09:00:00Z,26.5545,-82.1715,1.0,-9999.0,1111122 
SCCF RECON,ioos:station:SCCF:51:1,2010-05-09T10:00:00Z,26.5545,-82.1715,1.0,-9999.0,1111122 
SCCF RECON,ioos:station:SCCF:51:1,2010-05-09T11:00:00Z,26.5545,-82.1715,1.0,-9999.0,1111122 
SCCF RECON,ioos:station:SCCF:51:1,2010-05-09T12:00:00Z,26.5545,-82.1715,1.0,-9999.0,1111122 
SCCF RECON,ioos:station:SCCF:51:1,2010-05-09T13:00:00Z,26.5545,-82.1715,1.0,-9999.0,1111122 
SCCF RECON,ioos:station:SCCF:51:1,2010-05-09T14:00:00Z,26.5545,-82.1715,1.0,-9999.0,1111122 
SCCF RECON,ioos:station:SCCF:51:1,2010-05-09T15:00:00Z,26.5545,-82.1715,1.0,-9999.0,1111122 
SCCF RECON,ioos:station:SCCF:51:1,2010-05-09T16:00:00Z,26.5545,-82.1715,1.0,-9999.0,1111122 
SCCF RECON,ioos:station:SCCF:51:1,2010-05-09T17:00:00Z,26.5545,-82.1715,1.0,-9999.0,1111122 
SCCF RECON,ioos:station:SCCF:51:1,2010-05-09T18:00:00Z,26.5545,-82.1715,1.0,-9999.0,1111122 
SCCF RECON,ioos:station:SCCF:51:1,2010-05-09T19:00:00Z,26.5545,-82.1715,1.0,-9999.0,1111122 
SCCF RECON,ioos:station:SCCF:51:1,2010-05-09T20:00:00Z,26.5545,-82.1715,1.0,-9999.0,1111122 
SCCF RECON,ioos:station:SCCF:51:1,2010-05-09T21:00:00Z,26.5545,-82.1715,1.0,-9999.0,1111122 
SCCF RECON,ioos:station:SCCF:51:1,2010-05-09T22:00:00Z,26.5545,-82.1715,1.453,32.34,1111122 
SCCF RECON,ioos:station:SCCF:51:1,2010-05-10T00:00:00Z,26.5545,-82.1715,1.0,-9999.0,1111122 
SCCF RECON,ioos:station:SCCF:51:1,2010-05-10T01:00:00Z,26.5545,-82.1715,1.0,-9999.0,1111122 
SCCF RECON,ioos:station:SCCF:51:1,2010-05-10T02:00:00Z,26.5545,-82.1715,1.0,-9999.0,1111122 
SCCF RECON,ioos:station:SCCF:51:1,2010-05-10T03:00:00Z,26.5545,-82.1715,1.0,-9999.0,1111122 
SCCF RECON,ioos:station:SCCF:51:1,2010-05-10T04:00:00Z,26.5545,-82.1715,1.0,-9999.0,1111122 
SCCF RECON,ioos:station:SCCF:51:1,2010-05-10T05:00:00Z,26.5545,-82.1715,1.0,-9999.0,1111122 
SCCF RECON,ioos:station:SCCF:51:1,2010-05-10T06:00:00Z,26.5545,-82.1715,1.0,-9999.0,1111122 
SCCF RECON,ioos:station:SCCF:51:1,2010-05-10T07:00:00Z,26.5545,-82.1715,1.0,-9999.0,1111122 
SCCF RECON,ioos:station:SCCF:51:1,2010-05-10T08:00:00Z,26.5545,-82.1715,1.0,-9999.0,1111122 
SCCF RECON,ioos:station:SCCF:51:1,2010-05-10T09:00:00Z,26.5545,-82.1715,1.0,-9999.0,1111122 
SCCF RECON,ioos:station:SCCF:51:1,2010-05-10T10:00:00Z,26.5545,-82.1715,1.0,-9999.0,1111122 
SCCF RECON,ioos:station:SCCF:51:1,2010-05-10T11:00:00Z,26.5545,-82.1715,1.0,-9999.0,1111122 
SCCF RECON,ioos:station:SCCF:51:1,2010-05-10T12:00:00Z,26.5545,-82.1715,1.0,-9999.0,1111122 
SCCF RECON,ioos:station:SCCF:51:1,2010-05-10T13:00:00Z,26.5545,-82.1715,1.0,-9999.0,1111122 
SCCF RECON,ioos:station:SCCF:51:1,2010-05-10T14:00:00Z,26.5545,-82.1715,1.0,-9999.0,1111122 
SCCF RECON,ioos:station:SCCF:51:1,2010-05-10T15:00:00Z,26.5545,-82.1715,1.0,-9999.0,1111122 
SCCF RECON,ioos:station:SCCF:51:1,2010-05-10T16:00:00Z,26.5545,-82.1715,1.0,-9999.0,1111122 
SCCF RECON,ioos:station:SCCF:51:1,2010-05-10T17:00:00Z,26.5545,-82.1715,1.0,-9999.0,1111122 
SCCF RECON,ioos:station:SCCF:51:1,2010-05-10T18:00:00Z,26.5545,-82.1715,1.0,-9999.0,1111122 
SCCF RECON,ioos:station:SCCF:51:1,2010-05-10T19:00:00Z,26.5545,-82.1715,1.0,-9999.0,1111122 
SCCF RECON,ioos:station:SCCF:51:1,2010-05-10T20:00:00Z,26.5545,-82.1715,1.0,-9999.0,1111122 
SCCF RECON,ioos:station:SCCF:51:1,2010-05-10T21:00:00Z,26.5545,-82.1715,1.0,-9999.0,1111122 
SCCF RECON,ioos:station:SCCF:51:1,2010-05-11T00:00:00Z,26.5545,-82.1715,1.0,-9999.0,1111122 
SCCF RECON,ioos:station:SCCF:51:1,2010-05-11T01:00:00Z,26.5545,-82.1715,1.0,-9999.0,1111122 
SCCF RECON,ioos:station:SCCF:51:1,2010-05-11T02:00:00Z,26.5545,-82.1715,1.0,-9999.0,1111122 
SCCF RECON,ioos:station:SCCF:51:1,2010-05-11T03:00:00Z,26.5545,-82.1715,1.0,-9999.0,1111122 
SCCF RECON,ioos:station:SCCF:51:1,2010-05-11T04:00:00Z,26.5545,-82.1715,1.0,-9999.0,1111122 
SCCF RECON,ioos:station:SCCF:51:1,2010-05-11T05:00:00Z,26.5545,-82.1715,1.0,-9999.0,1111122 
SCCF RECON,ioos:station:SCCF:51:1,2010-05-11T06:00:00Z,26.5545,-82.1715,1.0,-9999.0,1111122 
SCCF RECON,ioos:station:SCCF:51:1,2010-05-11T07:00:00Z,26.5545,-82.1715,1.0,-9999.0,1111122 
SCCF RECON,ioos:station:SCCF:51:1,2010-05-11T08:00:00Z,26.5545,-82.1715,1.0,-9999.0,1111122 
SCCF RECON,ioos:station:SCCF:51:1,2010-05-11T09:00:00Z,26.5545,-82.1715,1.0,-9999.0,1111122 
SCCF RECON,ioos:station:SCCF:51:1,2010-05-11T10:00:00Z,26.5545,-82.1715,1.0,-9999.0,1111122 
SCCF RECON,ioos:station:SCCF:51:1,2010-05-11T11:00:00Z,26.5545,-82.1715,1.0,-9999.0,1111122 
SCCF RECON,ioos:station:SCCF:51:1,2010-05-11T12:00:00Z,26.5545,-82.1715,1.0,-9999.0,1111122 
SCCF RECON,ioos:station:SCCF:51:1,2010-05-11T13:00:00Z,26.5545,-82.1715,1.0,-9999.0,1111122 
SCCF RECON,ioos:station:SCCF:51:1,2010-05-11T14:00:00Z,26.5545,-82.1715,1.0,-9999.0,1111122 
SCCF RECON,ioos:station:SCCF:51:1,2010-05-11T15:00:00Z,26.5545,-82.1715,1.0,-9999.0,1111122 
SCCF RECON,ioos:station:SCCF:51:1,2010-05-11T16:00:00Z,26.5545,-82.1715,1.0,-9999.0,1111122 
SCCF RECON,ioos:station:SCCF:51:1,2010-05-11T17:00:00Z,26.5545,-82.1715,1.0,-9999.0,1111122 
SCCF RECON,ioos:station:SCCF:51:1,2010-05-11T18:00:00Z,26.5545,-82.1715,1.0,-9999.0,1111122 
SCCF RECON,ioos:station:SCCF:51:1,2010-05-11T19:00:00Z,26.5545,-82.1715,1.0,-9999.0,1111122 
SCCF RECON,ioos:station:SCCF:51:1,2010-05-11T20:00:00Z,26.5545,-82.1715,1.0,-9999.0,1111122 